Погода в Павино

Россия / Костромская область     59°06′53″N   46°08′33″E
темп.,
°C
ветер,
м/с
пор.,
м/с
влажн.,
%
обл.,
%
осадки,
мм/ч
давл.,
гПа
погр.,
м
8 мая, сб
сб800:00+3зюз23930 0.0 101450
03:00+2юз24930 0.0 101667
06:00+5юз24865 0.0 1017126
09:00+11ю346376 0.0 1017605
12:00+14ю34437 0.0 10171970
15:00+15юв45385 0.0 10152199
18:00+13юв48516 0.0 1014648
21:00+7юв31073100 0.0 1013214
9 мая, вс
вс900:00+7юв41380100 0.0 1012423
03:00+8вюв51487100 0.0 1010516
06:00+10юв51386100 0.0 1008669
09:00+10ююв51491100 1.1 1008870
12:00+11ююв41389100 1.9 1009792
15:00+14ю4983100 2.2 1009753
18:00+12сз1298100 2.2 100836
21:00+10в1199100 17.5 101017
10 мая, пн
пн1000:00+9з3798100 3.3 1012392
03:00+8юз2599100 6.6 1015368
06:00+5сз4996100 1.3 1020652
09:00+6ссз488587 1.4 1023863
12:00+11ссз46515 0.0 10251606
15:00+13ссз35425 0.0 10261892
18:00+11ссз25545 0.0 1028323
21:00+6с11675 0.0 103010
11 мая, вт
вт1100:00+5юз117159 0.0 103110
03:00+4юз1176100 0.0 103211
06:00+7юз23706 0.0 1033133
09:00+13юз345154 0.0 1033733
12:00+16юз33465 0.0 10321133
15:00+18зюз3348100 0.0 10311198
18:00+17юз11635 0.0 103144
21:00+11ююз227964 0.0 103114
12 мая, ср
ср1200:00+9юз2284100 0.0 103227
03:00+8зюз118559 0.0 103210
06:00+12ююз117410 0.0 103275
09:00+17ю22550 0.0 1032595
12:00+20ю23450 0.0 10311138
15:00+21ю22424 0.0 10301301
18:00+20ююв11580 0.0 102928
21:00+14юв11745 0.0 103011